Date,TemperatureHighF,TemperatureAvgF,TemperatureLowF,DewpointHighF,DewpointAvgF,DewpointLowF,HumidityHigh,HumidityAvg,HumidityLow,PressureMaxIn,PressureMinIn,WindSpeedMaxMPH,WindSpeedAvgMPH,GustSpeedMaxMPH,PrecipitationSumIn
2013-1-1,40.6,36.6,27.9,40.0,31.8,-99.9,100,83,62,30.18,29.97,6,3,10,0.00
2013-1-2,44.1,30.9,23.3,19.0,14.1,-99.9,66,51,35,30.24,30.15,5,-3,6,0.00
2013-1-3,54.2,34.5,22.3,26.8,20.1,14.5,74,56,34,30.36,30.18,6,-96,8,0.00
2013-1-4,56.2,36.9,25.0,31.6,22.7,19.0,81,58,33,30.39,30.30,7,-19,8,0.00
2013-1-5,49.1,39.7,29.5,31.3,26.2,21.9,78,59,44,30.33,30.15,5,1,8,0.00
2013-1-6,57.0,40.0,27.8,39.2,25.8,-99.9,90,59,38,30.33,30.09,7,2,10,0.00
2013-1-7,51.7,37.0,24.4,29.0,21.3,-99.9,81,55,35,30.42,30.15,4,-218,5,0.00
2013-1-8,64.0,45.4,29.8,33.6,27.5,19.0,74,52,31,30.24,30.12,5,-565,7,0.00
2013-1-9,61.9,52.1,48.4,49.0,36.3,-99.9,86,60,47,30.36,30.15,4,-200,6,0.00
2013-1-10,68.1,57.7,48.4,65.6,53.9,33.1,100,88,47,30.36,29.83,7,-238,10,0.00
2013-1-11,69.9,61.5,55.6,65.5,52.9,45.7,100,76,45,29.94,29.83,7,-1,12,0.00
2013-1-12,72.2,67.3,60.4,69.4,64.6,56.4,100,91,72,29.91,29.65,9,2,14,0.00
2013-1-13,63.1,38.8,28.9,61.2,36.3,21.4,100,90,65,30.24,29.71,9,4,13,0.00
2013-1-14,36.2,29.7,25.3,22.1,19.1,15.4,77,63,47,30.36,30.24,9,-103,12,0.00
2013-1-15,39.2,26.0,26.1,25.3,5.1,-99.9,82,61,46,30.27,30.09,7,-128,12,0.00
2013-1-16,-200.0,0.0,200.0,-99.9,-99.9,-99.9,0,0,100,0.00,40.00,0,-999,0,0.00
2013-1-17,-200.0,0.0,200.0,-99.9,-99.9,-99.9,0,0,100,0.00,40.00,0,-999,0,0.00
2013-1-19,61.6,53.4,47.9,30.7,28.4,-99.9,52,39,31,30.03,29.44,9,-28,13,0.00
2013-1-20,57.4,45.3,33.3,34.1,23.5,13.6,70,44,25,30.21,30.03,7,-16,10,0.00
2013-1-21,47.2,34.6,26.9,17.7,12.6,4.3,49,39,27,30.27,30.12,8,-29,13,0.00
2013-1-22,34.0,27.2,21.8,6.3,3.3,-1.1,39,32,29,30.39,30.27,6,2,11,0.00
2013-1-23,43.1,29.2,21.7,24.5,11.1,1.5,61,44,33,30.30,30.06,3,0,6,0.00
2013-1-24,41.0,34.4,25.6,24.5,11.8,-99.9,61,39,31,30.45,30.15,12,4,17,0.00
2013-1-25,47.0,28.6,31.3,29.1,-8.5,-99.9,72,37,31,30.15,30.03,6,1,9,0.00
2013-1-26,56.7,39.1,29.3,33.3,20.5,-99.9,80,51,30,30.27,30.15,5,2,9,0.00
2013-1-27,54.1,38.8,32.2,46.5,23.1,-99.9,98,69,46,30.24,30.00,4,2,10,0.00
2013-1-28,65.1,60.3,54.1,59.7,53.1,40.4,100,78,52,30.03,29.94,6,3,12,0.00
2013-1-29,73.4,66.5,57.7,61.1,57.8,52.0,91,74,57,29.94,29.38,7,4,19,0.00
2013-1-30,62.0,50.9,36.7,58.4,41.4,17.4,100,73,45,29.85,29.38,0,0,0,0.00
2013-1-31,49.5,36.4,25.2,29.4,13.2,-99.9,73,44,34,30.21,29.85,0,0,0,0.00